******************************************************************************* JPL/HORIZONS (2007 VK184) 2025-Dec-12 17:49:06 Rec #:50033971 (+COV) Soln.date: 2023-Jun-10_06:23:19 # obs: 128 (2007-2023) IAU76/J2000 helio. ecliptic osc. elements (au, days, deg., period=Julian yrs): EPOCH= 2457111.5 ! 2015-Mar-30.00 (TDB) Residual RMS= .29152 EC= .5698776012252729 QR= .7425699178166674 TP= 2456849.9763555676 OM= 253.9387632561784 W= 73.20971198926593 IN= 1.221938543680968 A= 1.726415364398593 MA= 113.6310696770968 ADIST= 2.710260810980518 PER= 2.26843 N= .434496353 ANGMOM= .018573041 DAN= 1.00096 DDN= 1.39547 L= 327.1448711 B= 1.169838 MOID= .00059929 TP= 2014-Jul-11.4763555676 Asteroid physical parameters (km, seconds, rotational period in hours): GM= n.a. RAD= n.a. ROTPER= n.a. H= 22.06 G= .150 B-V= n.a. ALBEDO= n.a. STYP= n.a. ASTEROID comments: 1: soln ref.= JPL#31, OCC=0 2: source=ORB ******************************************************************************* ******************************************************************************* Ephemeris / WWW_USER Fri Dec 12 17:49:06 2025 Pasadena, USA / Horizons ******************************************************************************* Target body name: (2007 VK184) {source: JPL#31} Center body name: Earth (399) {source: DE441} Center-site name: GEOCENTRIC ******************************************************************************* Start time : A.D. 2023-Apr-01 00:00:00.0000 UT Stop time : A.D. 2023-Apr-30 00:00:00.0000 UT Step-size : 1440 minutes ******************************************************************************* Target pole/equ : undefined Target radii : undefined Center geodetic : 0.0, 0.0, -6378.137 {E-lon(deg),Lat(deg),Alt(km)} Center cylindric: 0.0, 0.0, 0.0 {E-lon(deg),Dxy(km),Dz(km)} Center pole/equ : ITRF93 {East-longitude positive} Center radii : 6378.137, 6378.137, 6356.752 km {Equator_a, b, pole_c} Target primary : Sun Vis. interferer : MOON (R_eq= 1737.400) km {source: DE441} Rel. light bend : Sun {source: DE441} Rel. lght bnd GM: 1.3271E+11 km^3/s^2 Small-body perts: Yes {source: SB441-N16} Atmos refraction: NO (AIRLESS) RA format : HMS Time format : CAL Calendar mode : Mixed Julian/Gregorian EOP file : eop.251212.p260310 EOP coverage : DATA-BASED 1962-JAN-20 TO 2025-DEC-12. PREDICTS-> 2026-MAR-09 Units conversion: 1 au= 149597870.700 km, c= 299792.458 km/s, 1 day= 86400.0 s Table cut-offs 1: Elevation (-90.0deg=NO ),Airmass (>38.000=NO), Daylight (NO ) Table cut-offs 2: Solar elongation ( 0.0,180.0=NO ),Local Hour Angle( 0.0=NO ) Table cut-offs 3: RA/DEC angular rate ( 0.0=NO ) ******************************************************************************* Initial IAU76/J2000 heliocentric ecliptic osculating elements (au, days, deg.): EPOCH= 2457111.5 ! 2015-Mar-30.00 (TDB) Residual RMS= .29152 EC= .5698776012252729 QR= .7425699178166674 TP= 2456849.9763555676 OM= 253.9387632561784 W= 73.20971198926593 IN= 1.221938543680968 Equivalent ICRF heliocentric cartesian coordinates (au, au/d): X=-1.340832502437123E+00 Y= 1.882163847218136E+00 Z= 7.729774613624467E-01 VX=-8.374793023078694E-03 VY=-9.825331216557764E-04 VZ=-6.057337959191442E-04 Asteroid physical parameters (km, seconds, rotational period in hours): GM= n.a. RAD= n.a. ROTPER= n.a. H= 22.06 G= .150 B-V= n.a. ALBEDO= n.a. STYP= n.a. *************************************************************************************** Date__(UT)__HR:MN APmag S-brt delta deldot S-O-T /r Cnst *************************************************************************************** $$SOE 2023-Apr-01 00:00 23.534 n.a. 0.76230387946472 -22.3460375 149.6957 /L Lib 2023-Apr-02 00:00 23.470 n.a. 0.74948003036858 -22.0601428 150.8408 /L Lib 2023-Apr-03 00:00 23.405 n.a. 0.73682243429692 -21.7702990 151.9994 /L Lib 2023-Apr-04 00:00 23.338 n.a. 0.72433336920244 -21.4765138 153.1717 /L Lib 2023-Apr-05 00:00 23.271 n.a. 0.71201511266541 -21.1787799 154.3579 /L Lib 2023-Apr-06 00:00 23.202 n.a. 0.69986995221558 -20.8770696 155.5584 /L Lib 2023-Apr-07 00:00 23.133 n.a. 0.68790019792372 -20.5713323 156.7732 /L Lib 2023-Apr-08 00:00 23.062 n.a. 0.67610819582548 -20.2614946 158.0028 /L Lib 2023-Apr-09 00:00 22.990 n.a. 0.66449633997811 -19.9474647 159.2472 /L Lib 2023-Apr-10 00:00 22.916 n.a. 0.65306708063187 -19.6291416 160.5066 /L Lib 2023-Apr-11 00:00 22.841 n.a. 0.64182292625103 -19.3064271 161.7810 /L Lib 2023-Apr-12 00:00 22.765 n.a. 0.63076643780809 -18.9792402 163.0704 /L Vir 2023-Apr-13 00:00 22.687 n.a. 0.61990021456595 -18.6475318 164.3747 /L Vir 2023-Apr-14 00:00 22.607 n.a. 0.60922687115529 -18.3113004 165.6934 /L Vir 2023-Apr-15 00:00 22.525 n.a. 0.59874900612652 -17.9706055 167.0259 /L Vir 2023-Apr-16 00:00 22.441 n.a. 0.58846916262251 -17.6255814 168.3709 /L Vir 2023-Apr-17 00:00 22.355 n.a. 0.57838978281615 -17.2764446 169.7267 /L Vir 2023-Apr-18 00:00 22.266 n.a. 0.56851315942414 -16.9234954 171.0897 /L Vir 2023-Apr-19 00:00 22.174 n.a. 0.55884138941233 -16.5671091 172.4540 /L Vir 2023-Apr-20 00:00 22.079 n.a. 0.54937633580897 -16.2077169 173.8081 /L Vir 2023-Apr-21 00:00 21.981 n.a. 0.54011960231353 -15.8457814 175.1276 /L Vir 2023-Apr-22 00:00 21.882 n.a. 0.53107252218853 -15.4817730 176.3528 /L Vir 2023-Apr-23 00:00 21.788 n.a. 0.52223615913227 -15.1161528 177.3201 /L Vir 2023-Apr-24 00:00 21.724 n.a. 0.51361131524595 -14.7493652 177.6465 /T Vir 2023-Apr-25 00:00 21.707 n.a. 0.50519854076670 -14.3818387 177.0792 /T Vir 2023-Apr-26 00:00 21.712 n.a. 0.49699814158084 -14.0139923 175.9606 /T Vir 2023-Apr-27 00:00 21.723 n.a. 0.48901018259999 -13.6462427 174.6100 /T Vir 2023-Apr-28 00:00 21.732 n.a. 0.48123448694311 -13.2790115 173.1524 /T Vir 2023-Apr-29 00:00 21.740 n.a. 0.47367063209990 -12.9127282 171.6344 /T Vir 2023-Apr-30 00:00 21.747 n.a. 0.46631794486311 -12.5478310 170.0763 /T Vir $$EOE *************************************************************************************** Column meaning: TIME Times PRIOR to 1962 are UT1, a mean-solar time closely related to the prior but now-deprecated GMT. Times AFTER 1962 are in UTC, the current civil or "wall-clock" time-scale. UTC is kept within 0.9 seconds of UT1 using integer leap-seconds for 1972 and later years. Conversion from the internal Barycentric Dynamical Time (TDB) of solar system dynamics to the non-uniform civil UT time-scale requested for output has not been determined for UTC times after the next July or January 1st. Therefore, the last known leap-second is used as a constant over future intervals. Time tags refer to the UT time-scale conversion from TDB on Earth regardless of observer location within the solar system, although clock rates may differ due to the local gravity field and no analog to "UT" may be defined for that location. Any 'b' symbol in the 1st-column denotes a B.C. date. First-column blank (" ") denotes an A.D. date. CALENDAR SYSTEM Mixed calendar mode was active such that calendar dates after AD 1582-Oct-15 (if any) are in the modern Gregorian system. Dates prior to 1582-Oct-5 (if any) are in the Julian calendar system, which is automatically extended for dates prior to its adoption on 45-Jan-1 BC. The Julian calendar is useful for matching historical dates. The Gregorian calendar more accurately corresponds to the Earth's orbital motion and seasons. A "Gregorian-only" calendar mode is available if such physical events are the primary interest. NOTE: "n.a." in output means quantity "not available" at the print-time. 'APmag S-brt' = The asteroids' approximate apparent airless visual magnitude and surface brightness using the standard IAU H-G system magnitude model: APmag = H + 5*log10(delta) + 5*log10(r) - 2.5*log10((1-G)*phi_1 + G*phi_2) For solar phase angles >90 deg, the error could exceed 1 magnitude. For phase angles >120 degrees, output values are rounded to the nearest integer to indicate error could be large and unknown. For Earth-based observers, the estimated dimming due to atmospheric absorption (extinction) is available as a separate, requestable quantity. Surface brightness is the average airless visual magnitude of a square-arcsecond of the illuminated portion of the apparent disk. It is computed only if the target radius is known. Units: MAGNITUDES & MAGNITUDES PER SQUARE ARCSECOND 'delta deldot' = Apparent range ("delta", light-time aberrated) and range-rate ("delta-dot") of the target center relative to the observer. A positive "deldot" means the target center is moving away from the observer, negative indicates movement toward the observer. Units: AU and KM/S 'S-O-T /r' = Sun-Observer-Target apparent SOLAR ELONGATION ANGLE seen from the observers' location at print-time. The '/r' column provides a code indicating the targets' apparent position relative to the Sun in the observers' sky, as described below: Case A: For an observing location on the surface of a rotating body, that body rotational sense is considered: /T indicates target TRAILS Sun (evening sky: rises and sets AFTER Sun) /L indicates target LEADS Sun (morning sky: rises and sets BEFORE Sun) Case B: For an observing point that does not have a rotational model (such as a spacecraft), the "leading" and "trailing" condition is defined by the observers' heliocentric ORBITAL motion: * If continuing in the observers' current direction of heliocentric motion would encounter the targets' apparent longitude first, followed by the Sun's, the target LEADS the Sun as seen by the observer. * If the Sun's apparent longitude would be encountered first, followed by the targets', the target TRAILS the Sun. Two other codes can be output: /* indicates observer is Sun-centered (undefined) /? Target is aligned with Sun center (no lead or trail) The S-O-T solar elongation angle is numerically the minimum separation angle of the Sun and target in the sky in any direction. It does NOT indicate the amount of separation in the leading or trailing directions, which would be defined along the equator of a spherical coordinate system. Units: DEGREES 'Cnst' = Constellation ID; the 3-letter abbreviation for the name of the constellation containing the target centers' astrometric position, as defined by IAU (1930) boundary delineation. See documentation for list of abbreviations. Computations by ... Solar System Dynamics Group, Horizons On-Line Ephemeris System 4800 Oak Grove Drive, Jet Propulsion Laboratory Pasadena, CA 91109 USA General site: https://ssd.jpl.nasa.gov/ Mailing list: https://ssd.jpl.nasa.gov/email_list.html System news : https://ssd.jpl.nasa.gov/horizons/news.html User Guide : https://ssd.jpl.nasa.gov/horizons/manual.html Connect : browser https://ssd.jpl.nasa.gov/horizons/app.html#/x API https://ssd-api.jpl.nasa.gov/doc/horizons.html command-line telnet ssd.jpl.nasa.gov 6775 e-mail/batch https://ssd.jpl.nasa.gov/ftp/ssd/horizons_batch.txt scripts https://ssd.jpl.nasa.gov/ftp/ssd/SCRIPTS Author : Jon.D.Giorgini@jpl.nasa.gov *************************************************************************************** !$$SOF COMMAND = '2007 VK184' QUANTITIES = '9,20,23,29' START_TIME = '2023-04-01' STEP_SIZE = '1 day' STOP_TIME = '2023-04-30'